Terminal Aerodrome Forecast
Issued by NWS Albany, NY

Home | Current Version | Previous Version | Text Only | Print | Product List | Glossary On
Versions: 1 2 3 4 5 6 7 8 9 10 11 12 13 14 15 16 17 18 19 20 21 22 23 24 25 26 27
000
FTUS41 KALY 152300
TAFPOU
TAF
KPOU 152327Z 1600/1624 VRB03KT P6SM BKN150 BKN250
     FM160300 00000KT P6SM OVC120
     FM160800 00000KT 5SM -SHRA OVC025
     FM161400 28004KT P6SM FEW025 SCT050=

USA.gov is the U.S. government's official web portal to all federal, state and local government web resources and services.